KA7VEE Weather Reports


time (UTC)temp
F
wind
direction
speed
knots
gust
knots
rain 1hr
in
rain 24hr
in
rain mn
in
humidity
%
barometer
mb
20260505004314 0 68 1.7 6.1 0.00 0.00 0.00 1007.2
20260505003812 0 89 0.9 2.6 0.00 0.00 0.00 1007.2
20260505003309 0 1 2.6 5.2 0.00 0.00 0.00 1007.2
20260505002805 0 94 2.6 7.0 0.00 0.00 0.00 1007.1
20260505002304 0 353 1.7 7.0 0.00 0.00 0.00 1007.1
20260505001801 0 101 2.6 5.2 0.00 0.00 0.00 1007.2
20260505001257 0 68 1.7 1.7 0.00 0.00 0.00 1007.2
20260505000754 0 84 1.7 4.3 0.00 0.00 0.00 1007.1
20260505000252 0 43 2.6 4.3 0.00 0.00 0.00 1007.1
20260504235749 0 50 2.6 2.6 0.00 0.00 0.00 1007.0
20260504235245 0 76 3.5 5.2 0.00 0.00 0.00 1007.2
20260504234742 0 302 3.5 7.0 0.00 0.00 0.00 1007.3
20260504234239 0 107 0.9 1.7 0.00 0.00 0.00 1007.4
20260504233736 0 92 1.7 2.6 0.00 0.00 0.00 1007.3
20260504233231 0 86 1.7 6.1 0.00 0.00 0.00 1007.6
20260504232729 0 89 0.9 4.3 0.00 0.00 0.00 1007.3
20260504232226 0 81 1.7 4.3 0.00 0.00 0.00 1007.3
20260504231722 0 99 1.7 6.1 0.00 0.00 0.00 1007.4
20260504231219 0 87 2.6 4.3 0.00 0.00 0.00 1007.5
20260504230715 0 3 0.9 4.3 0.00 0.00 0.00 1007.4
20260504230214 0 323 2.6 5.2 0.00 0.00 0.00 1007.6
20260504225712 0 70 1.7 4.3 0.00 0.00 0.00 1007.4
20260504225208 0 41 1.7 2.6 0.00 0.00 0.00 1007.5
20260504224705 0 78 1.7 6.1 0.00 0.00 0.00 1007.6
20260504224203 0 355 0.9 4.3 0.00 0.00 0.00 1007.5
20260504223659 0 79 1.7 2.6 0.00 0.00 0.00 1007.7
20260504223154 0 327 2.6 4.3 0.00 0.00 0.00 1007.8
20260504222652 0 6 2.6 6.1 0.00 0.00 0.00 1007.7
20260504222148 0 260 2.6 4.3 0.00 0.00 0.00 1007.8
20260504221646 0 50 0.9 2.6 0.00 0.00 0.00 1007.6
20260504221143 0 37 3.5 4.3 0.00 0.00 0.00 1007.8
20260504220639 0 347 5.2 6.1 0.00 0.00 0.00 1008.0
20260504220137 0 88 1.7 7.0 0.00 0.00 0.00 1008.0
20260504215633 0 328 4.3 6.1 0.00 0.00 0.00 1008.0
20260504215130 0 325 2.6 6.1 0.00 0.00 0.00 1007.9
20260504214626 0 35 4.3 6.1 0.00 0.00 0.00 1008.0
20260504214123 0 270 4.3 6.1 0.00 0.00 0.00 1008.2
20260504213619 0 334 5.2 8.7 0.00 0.00 0.00 1008.1
20260504213116 0 39 2.6 5.2 0.00 0.00 0.00 1008.2
20260504212612 0 334 6.1 7.8 0.00 0.00 0.00 1008.3
20260504212109 0 12 3.5 6.1 0.00 0.00 0.00 1008.2
20260504211607 0 125 3.5 5.2 0.00 0.00 0.00 1008.2
20260504211103 0 203 4.3 7.0 0.00 0.00 0.00 1008.3
20260504210601 0 254 3.5 5.2 0.00 0.00 0.00 1008.2
20260504210057 0 27 2.6 2.6 0.00 0.00 0.00 1008.1
20260504205555 0 75 0.9 5.2 0.00 0.00 0.00 1008.3
20260504205052 0 24 3.5 5.2 0.00 0.00 0.00 1008.2
20260504204550 0 96 0.9 1.7 0.00 0.00 0.00 1008.1
20260504204049 0 334 2.6 5.2 0.00 0.00 0.00 1008.2
20260504203547 0 328 2.6 4.3 0.00 0.00 0.00 1008.3
20260504203044 0 95 0.9 2.6 0.00 0.00 0.00 1008.4
20260504202539 0 351 1.7 2.6 0.00 0.00 0.00 1008.5
20260504202037 0 89 0.9 2.6 0.00 0.00 0.00 1008.3
20260504201533 0 89 0.9 2.6 0.00 0.00 0.00 1008.3
20260504201032 0 95 0.0 4.3 0.00 0.00 0.00 1008.4
20260504200527 0 91 1.7 5.2 0.00 0.00 0.00 1008.5
20260504200024 0 71 2.6 4.3 0.00 0.00 0.00 1008.5
20260504195520 0 353 4.3 6.1 0.00 0.00 0.00 1008.8
20260504195017 0 76 2.6 2.6 0.00 0.00 0.00 1008.7
20260504194514 0 100 1.7 1.7 0.00 0.00 0.00 1008.6
20260504194009 0 335 2.6 4.3 0.00 0.00 0.00 1008.6
20260504193506 0 86 2.6 7.0 0.00 0.00 0.00 1008.6
20260504193005 0 72 2.6 5.2 0.00 0.00 0.00 1008.6
20260504192502 0 77 0.9 2.6 0.00 0.00 0.00 1008.5
20260504192001 0 15 3.5 6.1 0.00 0.00 0.00 1008.6
20260504191458 0 284 3.5 5.2 0.00 0.00 0.00 1008.5
20260504190954 0 106 2.6 5.2 0.00 0.00 0.00 1008.7
20260504190449 0 25 3.5 6.1 0.00 0.00 0.00 1008.9
20260504185946 0 294 2.6 4.3 0.00 0.00 0.00 1008.5
20260504185443 0 339 3.5 6.1 0.00 0.00 0.00 1008.8
20260504184939 0 51 1.7 6.1 0.00 0.00 0.00 1008.7
20260504184435 0 292 3.5 5.2 0.00 0.00 0.00 1009.0
20260504183931 0 212 1.7 5.2 0.00 0.00 0.00 1008.9
20260504183429 0 39 1.7 5.2 0.00 0.00 0.00 1008.8
20260504182927 0 324 3.5 5.2 0.00 0.00 0.00 1008.9
20260504182423 0 318 4.3 6.1 0.00 0.00 0.00 1008.9
20260504181920 0 316 4.3 6.1 0.00 0.00 0.00 1008.4
20260504181418 0 42 2.6 6.1 0.00 0.00 0.00 1008.8
20260504180916 0 55 2.6 5.2 0.00 0.00 0.00 1008.8
20260504180415 0 75 0.9 4.3 0.00 0.00 0.00 1008.8
20260504175912 0 7 2.6 5.2 0.00 0.00 0.00 1008.5
20260504175409 0 133 3.5 4.3 0.00 0.00 0.00 1008.5
20260504174907 0 9 3.5 4.3 0.00 0.00 0.00 1008.8
20260504174404 0 74 1.7 2.6 0.00 0.00 0.00 1008.4
20260504173901 0 59 0.9 1.7 0.00 0.00 0.00 1008.6
20260504173357 0 84 1.7 4.3 0.00 0.00 0.00 1008.5
20260504172855 0 66 2.6 5.2 0.00 0.00 0.00 1008.6
20260504172351 0 32 2.6 2.6 0.00 0.00 0.00 1008.5
20260504171847 0 45 1.7 4.3 0.00 0.00 0.00 1008.2
20260504171345 0 26 2.6 4.3 0.00 0.00 0.00 1008.5
20260504170842 0 229 2.6 2.6 0.00 0.00 0.00 1008.4
20260504170338 0 0.0 0.0 0.00 0.00 0.00 1008.6
20260504160257 0 0.0 0.0 0.00 0.00 0.00 1008.6
20260504150722 0 0.0 0.0 0.00 0.00 0.00 1008.4
20260504150219 0 0.0 0.0 0.00 0.00 0.00 1008.4
20260504141148 0 0.0 0.0 0.00 0.00 0.00 1008.3
20260504140645 0 0.0 0.0 0.00 0.00 0.00 1008.1
20260504140140 0 0.0 0.0 0.00 0.00 0.00 1008.2
20260504130609 0 0.0 0.0 0.00 0.00 0.00 1007.7
20260504130106 0 0.0 0.0 0.00 0.00 0.00 1007.7
20260504110456 0 0.0 0.0 0.00 0.00 0.00 1007.7
20260504100419 0 0.0 0.0 0.00 0.00 0.00 1007.6
20260504081812 0 0.0 0.0 0.00 0.00 0.00 1007.7
20260504081309 0 0.0 0.0 0.00 0.00 0.00 1007.9
20260504080805 0 0.0 0.0 0.00 0.00 0.00 1007.8
20260504080301 0 0.0 0.0 0.00 0.00 0.00 1007.7
20260504070229 0 0.0 0.0 0.00 0.00 0.00 1007.6
20260504060150 0 0.0 0.0 0.00 0.00 0.00 1007.9
20260504050618 0 0.0 0.0 0.00 0.00 0.00 1007.9
20260504050115 0 0.0 0.0 0.00 0.00 0.00 1008.0
20260504045612 0 0.0 0.0 0.00 0.00 0.00 1007.8
20260504045107 0 0.0 0.0 0.00 0.00 0.00 1008.1
20260504044605 0 0.0 0.0 0.00 0.00 0.00 1008.0
20260504044101 0 0.0 0.0 0.00 0.00 0.00 1007.8
20260504043559 0 0.0 0.0 0.00 0.00 0.00 1007.8
20260504043055 0 0.0 0.0 0.00 0.00 0.00 1007.7
20260504042552 0 0.0 0.0 0.00 0.00 0.00 1007.8
20260504042049 0 0.0 0.0 0.00 0.00 0.00 1007.7
20260504041545 0 0.0 0.0 0.00 0.00 0.00 1007.6
20260504041041 0 0.0 0.0 0.00 0.00 0.00 1008.0
20260504040539 0 0.0 0.0 0.00 0.00 0.00 1007.8
20260504040036 0 202 0.0 0.0 0.00 0.00 0.00 1007.7
20260504035532 0 202 0.0 0.0 0.00 0.00 0.00 1007.5
20260504035029 0 202 0.0 0.0 0.00 0.00 0.00 1007.7
20260504034527 0 202 0.0 0.0 0.00 0.00 0.00 1007.4
20260504034023 0 202 0.0 0.0 0.00 0.00 0.00 1007.5
20260504033521 0 202 0.0 0.0 0.00 0.00 0.00 1007.5
20260504033018 0 202 0.0 0.0 0.00 0.00 0.00 1007.7
20260504032515 0 202 0.0 0.0 0.00 0.00 0.00 1007.5
20260504032012 0 202 0.0 0.0 0.00 0.00 0.00 1007.5
20260504031509 0 202 0.0 0.0 0.00 0.00 0.00 1007.6
20260504031005 0 202 0.0 0.0 0.00 0.00 0.00 1007.6
20260504030503 0 202 0.0 0.9 0.00 0.00 0.00 1007.6
20260504025958 0 184 0.9 1.7 0.00 0.00 0.00 1007.7
20260504025456 0 106 1.7 4.3 0.00 0.00 0.00 1007.9
20260504024952 0 100 0.9 1.7 0.00 0.00 0.00 1007.9
20260504024449 0 105 0.0 1.7 0.00 0.00 0.00 1007.8
20260504023946 0 100 0.0 1.7 0.00 0.00 0.00 1007.9
20260504023443 0 80 0.9 5.2 0.00 0.00 0.00 1008.0
20260504022938 0 98 2.6 4.3 0.00 0.00 0.00 1007.9
20260504022435 0 117 1.7 4.3 0.00 0.00 0.00 1007.7
20260504021932 0 94 0.9 1.7 0.00 0.00 0.00 1007.7
20260504021429 0 82 1.7 5.2 0.00 0.00 0.00 1007.8
20260504020926 0 107 0.0 0.9 0.00 0.00 0.00 1007.9
20260504020423 0 96 0.9 2.6 0.00 0.00 0.00 1007.9
20260504015920 0 64 2.6 4.3 0.00 0.00 0.00 1008.0
20260504015415 0 95 0.9 5.2 0.00 0.00 0.00 1008.2
20260504014912 0 73 1.7 2.6 0.00 0.00 0.00 1007.9
20260504014408 0 92 0.9 1.7 0.00 0.00 0.00 1008.1
20260504013905 0 89 3.5 4.3 0.00 0.00 0.00 1008.1
20260504013403 0 85 2.6 5.2 0.00 0.00 0.00 1008.2
20260504012859 0 85 0.9 4.3 0.00 0.00 0.00 1008.3
20260504012357 0 74 2.6 4.3 0.00 0.00 0.00 1008.2
20260504011854 0 99 1.7 2.6 0.00 0.00 0.00 1008.3
20260504011351 0 94 2.6 5.2 0.00 0.00 0.00 1008.3
20260504010847 0 94 2.6 4.3 0.00 0.00 0.00 1008.2
20260504010342 0 50 2.6 4.3 0.00 0.00 0.00 1008.2
20260504005839 0 118 2.6 6.1 0.00 0.00 0.00 1008.3
20260504005336 0 94 0.0 4.3 0.00 0.00 0.00 1008.5
20260504004834 0 130 2.6 5.2 0.00 0.00 0.00 1008.5